TimeCST,TemperatureF,Dew PointF,Humidity,Sea Level PressureIn,VisibilityMPH,Wind Direction,Wind SpeedMPH,Gust SpeedMPH,PrecipitationIn,Events,Conditions,WindDirDegrees,DateUTC
12:15 AM,25.0,12.9,60,30.16,10.0,WNW,6.9,-,N/A,,Clear,300,2012-12-04 06:15:00
12:35 AM,23.5,12.7,63,30.17,10.0,NW,5.8,-,N/A,,Clear,320,2012-12-04 06:35:00
12:55 AM,20.8,11.8,68,30.17,10.0,WNW,8.1,-,N/A,,Clear,300,2012-12-04 06:55:00
1:15 AM,23.0,13.1,66,30.17,10.0,WNW,8.1,-,N/A,,Clear,300,2012-12-04 07:15:00
1:35 AM,23.4,14.2,68,30.17,10.0,WNW,4.6,-,N/A,,Clear,300,2012-12-04 07:35:00
1:55 AM,25.3,15.6,67,30.17,10.0,WNW,10.4,-,N/A,,Clear,290,2012-12-04 07:55:00
2:15 AM,22.5,14.2,71,30.17,10.0,North,3.5,-,N/A,,Clear,360,2012-12-04 08:15:00
2:55 AM,21.9,13.8,71,30.18,10.0,NW,4.6,-,N/A,,Clear,310,2012-12-04 08:55:00
3:15 AM,21.0,13.5,73,30.19,10.0,West,5.8,-,N/A,,Clear,280,2012-12-04 09:15:00
3:35 AM,21.4,13.8,73,30.19,10.0,West,8.1,-,N/A,,Clear,280,2012-12-04 09:35:00
3:55 AM,19.8,13.3,76,30.18,10.0,WNW,8.1,-,N/A,,Clear,290,2012-12-04 09:55:00
4:15 AM,19.8,13.6,77,30.19,10.0,WNW,6.9,-,N/A,,Clear,300,2012-12-04 10:15:00
4:35 AM,22.1,15.1,74,30.20,10.0,WNW,6.9,-,N/A,,Clear,300,2012-12-04 10:35:00
4:55 AM,21.2,14.2,74,30.21,10.0,NW,3.5,-,N/A,,Clear,310,2012-12-04 10:55:00
5:15 AM,23.7,14.9,69,30.21,10.0,WNW,5.8,-,N/A,,Clear,290,2012-12-04 11:15:00
5:35 AM,29.3,18.0,63,30.22,10.0,WNW,16.1,-,N/A,,Clear,300,2012-12-04 11:35:00
5:55 AM,32.0,17.4,55,30.23,10.0,WNW,13.8,-,N/A,,Clear,300,2012-12-04 11:55:00
6:15 AM,31.6,17.4,56,30.24,10.0,WNW,13.8,-,N/A,,Clear,300,2012-12-04 12:15:00
6:35 AM,31.1,16.7,55,30.25,10.0,WNW,10.4,-,N/A,,Clear,300,2012-12-04 12:35:00
6:55 AM,28.9,16.5,60,30.26,10.0,WNW,9.2,-,N/A,,Clear,290,2012-12-04 12:55:00
7:15 AM,28.0,16.3,62,30.26,10.0,WNW,11.5,-,N/A,,Clear,290,2012-12-04 13:15:00
7:35 AM,27.1,15.8,62,30.27,10.0,West,13.8,-,N/A,,Clear,280,2012-12-04 13:35:00
7:55 AM,27.0,15.8,63,30.28,10.0,WNW,10.4,-,N/A,,Clear,300,2012-12-04 13:55:00
8:15 AM,26.1,15.6,65,30.28,7.0,WNW,12.7,-,N/A,,Clear,290,2012-12-04 14:15:00
8:35 AM,27.3,16.3,63,30.28,10.0,WNW,10.4,-,N/A,,Clear,300,2012-12-04 14:35:00
8:55 AM,29.3,17.2,61,30.29,10.0,WNW,10.4,-,N/A,,Clear,300,2012-12-04 14:55:00
9:15 AM,33.4,18.0,53,30.29,10.0,WNW,11.5,-,N/A,,Clear,300,2012-12-04 15:15:00
9:35 AM,35.1,17.6,49,30.30,10.0,WNW,9.2,-,N/A,,Clear,290,2012-12-04 15:35:00
9:55 AM,36.7,17.6,46,30.29,10.0,WNW,10.4,-,N/A,,Clear,300,2012-12-04 15:55:00
10:15 AM,39.2,18.1,43,30.30,10.0,WNW,11.5,-,N/A,,Clear,290,2012-12-04 16:15:00
10:35 AM,41.4,18.3,40,30.32,10.0,WNW,12.7,-,N/A,,Clear,290,2012-12-04 16:35:00
10:55 AM,43.2,18.5,37,30.31,10.0,WNW,12.7,-,N/A,,Clear,290,2012-12-04 16:55:00
11:15 AM,45.7,19.2,35,30.30,10.0,WNW,8.1,-,N/A,,Clear,290,2012-12-04 17:15:00
11:35 AM,47.7,19.4,33,30.29,10.0,WNW,5.8,-,N/A,,Clear,300,2012-12-04 17:35:00
11:55 AM,49.6,19.4,30,30.28,10.0,NW,5.8,-,N/A,,Clear,320,2012-12-04 17:55:00
12:15 PM,51.1,19.2,29,30.27,10.0,West,4.6,-,N/A,,Clear,280,2012-12-04 18:15:00
12:35 PM,51.8,18.5,27,30.27,10.0,WSW,3.5,-,N/A,,Clear,250,2012-12-04 18:35:00
12:55 PM,53.8,18.7,25,30.27,10.0,WNW,3.5,-,N/A,,Clear,300,2012-12-04 18:55:00
1:15 PM,54.0,18.3,25,30.27,10.0,WSW,3.5,-,N/A,,Clear,250,2012-12-04 19:15:00
1:35 PM,54.7,17.6,23,30.26,10.0,Calm,Calm,-,N/A,,Clear,0,2012-12-04 19:35:00
1:55 PM,56.1,16.9,21,30.25,10.0,Calm,Calm,-,N/A,,Clear,0,2012-12-04 19:55:00
2:15 PM,55.9,16.0,21,30.24,10.0,Calm,Calm,-,N/A,,Clear,0,2012-12-04 20:15:00
2:35 PM,56.3,16.3,21,30.23,10.0,Calm,Calm,-,N/A,,Clear,0,2012-12-04 20:35:00
2:55 PM,57.2,15.4,19,30.22,10.0,Calm,Calm,-,N/A,,Clear,0,2012-12-04 20:55:00
3:15 PM,56.7,14.9,19,30.22,10.0,Calm,Calm,-,N/A,,Clear,0,2012-12-04 21:15:00
3:35 PM,56.7,15.8,20,30.22,10.0,ESE,4.6,-,N/A,,Clear,120,2012-12-04 21:35:00
3:55 PM,57.0,15.8,20,30.22,10.0,SE,3.5,-,N/A,,Clear,130,2012-12-04 21:55:00
4:15 PM,55.0,16.3,22,30.22,10.0,SE,4.6,-,N/A,,Clear,140,2012-12-04 22:15:00
4:35 PM,54.0,15.8,22,30.22,10.0,East,3.5,-,N/A,,Clear,100,2012-12-04 22:35:00
4:55 PM,52.9,15.8,23,30.22,10.0,SE,4.6,-,N/A,,Clear,130,2012-12-04 22:55:00
5:15 PM,50.9,16.0,25,30.22,10.0,ESE,4.6,-,N/A,,Clear,120,2012-12-04 23:15:00
5:35 PM,47.8,15.6,28,30.21,10.0,SSE,5.8,-,N/A,,Clear,160,2012-12-04 23:35:00
5:55 PM,46.4,15.8,29,30.21,4.0,SSW,5.8,-,N/A,,Haze,200,2012-12-04 23:55:00
6:15 PM,43.5,15.4,32,30.22,10.0,South,6.9,-,N/A,,Clear,190,2012-12-05 00:15:00
6:35 PM,42.8,15.1,33,30.21,10.0,South,6.9,-,N/A,,Clear,170,2012-12-05 00:35:00
6:55 PM,42.8,15.3,33,30.20,10.0,SSE,5.8,-,N/A,,Clear,150,2012-12-05 00:55:00
7:15 PM,43.0,15.3,33,30.20,10.0,SSE,5.8,-,N/A,,Clear,160,2012-12-05 01:15:00
7:35 PM,39.4,14.7,37,30.21,10.0,SSE,4.6,-,N/A,,Clear,160,2012-12-05 01:35:00
7:55 PM,39.6,15.1,37,30.21,10.0,SSE,6.9,-,N/A,,Clear,160,2012-12-05 01:55:00
8:15 PM,38.1,15.3,39,30.22,10.0,SSE,5.8,-,N/A,,Clear,160,2012-12-05 02:15:00
8:35 PM,35.8,15.1,43,30.21,10.0,SSE,3.5,-,N/A,,Clear,160,2012-12-05 02:35:00
8:55 PM,35.1,14.9,44,30.21,10.0,SSE,5.8,-,N/A,,Clear,160,2012-12-05 02:55:00
9:15 PM,35.4,15.4,44,30.21,10.0,SSE,5.8,-,N/A,,Clear,160,2012-12-05 03:15:00
9:35 PM,36.9,15.3,41,30.21,10.0,SSE,8.1,-,N/A,,Clear,150,2012-12-05 03:35:00
9:55 PM,36.9,14.5,40,30.21,10.0,SSE,8.1,-,N/A,,Clear,160,2012-12-05 03:55:00
10:15 PM,35.1,14.5,43,30.21,10.0,SSE,8.1,-,N/A,,Clear,150,2012-12-05 04:15:00
10:35 PM,36.5,14.9,41,30.21,10.0,SSE,5.8,-,N/A,,Clear,150,2012-12-05 04:35:00
10:55 PM,37.0,14.7,40,30.21,10.0,SSE,6.9,-,N/A,,Clear,160,2012-12-05 04:55:00
11:15 PM,34.9,14.5,43,30.21,10.0,SE,4.6,-,N/A,,Clear,140,2012-12-05 05:15:00
11:35 PM,34.5,15.3,45,30.20,10.0,SSE,8.1,-,N/A,,Clear,160,2012-12-05 05:35:00
11:55 PM,35.1,15.1,44,30.20,10.0,SSE,6.9,-,N/A,,Clear,160,2012-12-05 05:55:00